Index of /20260428/WXO-DD/model_rdps/10km/00/013
Name Last modified Size Description
Parent Directory -
20260428T00Z_MSC_RDPS_AbsoluteVorticity_IsbL-0250_RLatLon0.09_PT013H.grib2 2026-04-28 02:44 629K
20260428T00Z_MSC_RDPS_AbsoluteVorticity_IsbL-0500_RLatLon0.09_PT013H.grib2 2026-04-28 02:44 575K
20260428T00Z_MSC_RDPS_AbsoluteVorticity_IsbL-0700_RLatLon0.09_PT013H.grib2 2026-04-28 02:44 621K
20260428T00Z_MSC_RDPS_AbsoluteVorticity_IsbL-0850_RLatLon0.09_PT013H.grib2 2026-04-28 02:44 782K
20260428T00Z_MSC_RDPS_AirTemp_AGL-120m_RLatLon0.09_PT013H.grib2 2026-04-28 02:44 385K
20260428T00Z_MSC_RDPS_AirTemp_AGL-2m_RLatLon0.09_PT013H.grib2 2026-04-28 02:44 643K
20260428T00Z_MSC_RDPS_AirTemp_AGL-40m_RLatLon0.09_PT013H.grib2 2026-04-28 02:44 402K
20260428T00Z_MSC_RDPS_AirTemp_AGL-80m_RLatLon0.09_PT013H.grib2 2026-04-28 02:44 393K
20260428T00Z_MSC_RDPS_AirTemp_IsbL-0001_RLatLon0.09_PT013H.grib2 2026-04-28 02:44 269K
20260428T00Z_MSC_RDPS_AirTemp_IsbL-0005_RLatLon0.09_PT013H.grib2 2026-04-28 02:44 292K
20260428T00Z_MSC_RDPS_AirTemp_IsbL-0010_RLatLon0.09_PT013H.grib2 2026-04-28 02:44 303K
20260428T00Z_MSC_RDPS_AirTemp_IsbL-0020_RLatLon0.09_PT013H.grib2 2026-04-28 02:44 319K
20260428T00Z_MSC_RDPS_AirTemp_IsbL-0030_RLatLon0.09_PT013H.grib2 2026-04-28 02:44 336K
20260428T00Z_MSC_RDPS_AirTemp_IsbL-0050_RLatLon0.09_PT013H.grib2 2026-04-28 02:44 316K
20260428T00Z_MSC_RDPS_AirTemp_IsbL-0100_RLatLon0.09_PT013H.grib2 2026-04-28 02:44 430K
20260428T00Z_MSC_RDPS_AirTemp_IsbL-0150_RLatLon0.09_PT013H.grib2 2026-04-28 02:44 435K
20260428T00Z_MSC_RDPS_AirTemp_IsbL-0175_RLatLon0.09_PT013H.grib2 2026-04-28 02:44 424K
20260428T00Z_MSC_RDPS_AirTemp_IsbL-0200_RLatLon0.09_PT013H.grib2 2026-04-28 02:44 423K
20260428T00Z_MSC_RDPS_AirTemp_IsbL-0225_RLatLon0.09_PT013H.grib2 2026-04-28 02:44 425K
20260428T00Z_MSC_RDPS_AirTemp_IsbL-0250_RLatLon0.09_PT013H.grib2 2026-04-28 02:44 434K
20260428T00Z_MSC_RDPS_AirTemp_IsbL-0275_RLatLon0.09_PT013H.grib2 2026-04-28 02:44 414K
20260428T00Z_MSC_RDPS_AirTemp_IsbL-0300_RLatLon0.09_PT013H.grib2 2026-04-28 02:44 419K
20260428T00Z_MSC_RDPS_AirTemp_IsbL-0350_RLatLon0.09_PT013H.grib2 2026-04-28 02:44 430K
20260428T00Z_MSC_RDPS_AirTemp_IsbL-0400_RLatLon0.09_PT013H.grib2 2026-04-28 02:44 431K
20260428T00Z_MSC_RDPS_AirTemp_IsbL-0450_RLatLon0.09_PT013H.grib2 2026-04-28 02:44 439K
20260428T00Z_MSC_RDPS_AirTemp_IsbL-0500_RLatLon0.09_PT013H.grib2 2026-04-28 02:44 413K
20260428T00Z_MSC_RDPS_AirTemp_IsbL-0550_RLatLon0.09_PT013H.grib2 2026-04-28 02:44 429K
20260428T00Z_MSC_RDPS_AirTemp_IsbL-0600_RLatLon0.09_PT013H.grib2 2026-04-28 02:44 445K
20260428T00Z_MSC_RDPS_AirTemp_IsbL-0650_RLatLon0.09_PT013H.grib2 2026-04-28 02:44 458K
20260428T00Z_MSC_RDPS_AirTemp_IsbL-0700_RLatLon0.09_PT013H.grib2 2026-04-28 02:44 482K
20260428T00Z_MSC_RDPS_AirTemp_IsbL-0750_RLatLon0.09_PT013H.grib2 2026-04-28 02:44 409K
20260428T00Z_MSC_RDPS_AirTemp_IsbL-0800_RLatLon0.09_PT013H.grib2 2026-04-28 02:44 456K
20260428T00Z_MSC_RDPS_AirTemp_IsbL-0850_RLatLon0.09_PT013H.grib2 2026-04-28 02:44 509K
20260428T00Z_MSC_RDPS_AirTemp_IsbL-0875_RLatLon0.09_PT013H.grib2 2026-04-28 02:44 527K
20260428T00Z_MSC_RDPS_AirTemp_IsbL-0900_RLatLon0.09_PT013H.grib2 2026-04-28 02:44 531K
20260428T00Z_MSC_RDPS_AirTemp_IsbL-0925_RLatLon0.09_PT013H.grib2 2026-04-28 02:44 528K
20260428T00Z_MSC_RDPS_AirTemp_IsbL-0950_RLatLon0.09_PT013H.grib2 2026-04-28 02:44 532K
20260428T00Z_MSC_RDPS_AirTemp_IsbL-0970_RLatLon0.09_PT013H.grib2 2026-04-28 02:44 529K
20260428T00Z_MSC_RDPS_AirTemp_IsbL-0985_RLatLon0.09_PT013H.grib2 2026-04-28 02:44 517K
20260428T00Z_MSC_RDPS_AirTemp_IsbL-1000_RLatLon0.09_PT013H.grib2 2026-04-28 02:44 502K
20260428T00Z_MSC_RDPS_AirTemp_IsbL-1015_RLatLon0.09_PT013H.grib2 2026-04-28 02:44 500K
20260428T00Z_MSC_RDPS_Albedo_Sfc_RLatLon0.09_PT013H.grib2 2026-04-28 02:44 158K
20260428T00Z_MSC_RDPS_CAPE_Sfc_RLatLon0.09_PT013H.grib2 2026-04-28 02:44 1.7M
20260428T00Z_MSC_RDPS_CIN_Sfc_RLatLon0.09_PT013H.grib2 2026-04-28 02:44 1.1M
20260428T00Z_MSC_RDPS_CloudWater_EAtm_RLatLon0.09_PT013H.grib2 2026-04-28 02:44 218K
20260428T00Z_MSC_RDPS_ConvectivePrecip-Accum_Sfc_RLatLon0.09_PT013H.grib2 2026-04-28 02:44 691K
20260428T00Z_MSC_RDPS_DewPointDepression_AGL-2m_RLatLon0.09_PT013H.grib2 2026-04-28 02:44 403K
20260428T00Z_MSC_RDPS_DewPointDepression_IsbL-0001_RLatLon0.09_PT013H.grib2 2026-04-28 02:44 193
20260428T00Z_MSC_RDPS_DewPointDepression_IsbL-0005_RLatLon0.09_PT013H.grib2 2026-04-28 02:44 193
20260428T00Z_MSC_RDPS_DewPointDepression_IsbL-0010_RLatLon0.09_PT013H.grib2 2026-04-28 02:44 193
20260428T00Z_MSC_RDPS_DewPointDepression_IsbL-0020_RLatLon0.09_PT013H.grib2 2026-04-28 02:44 193
20260428T00Z_MSC_RDPS_DewPointDepression_IsbL-0030_RLatLon0.09_PT013H.grib2 2026-04-28 02:44 930
20260428T00Z_MSC_RDPS_DewPointDepression_IsbL-0050_RLatLon0.09_PT013H.grib2 2026-04-28 02:44 87K
20260428T00Z_MSC_RDPS_DewPointDepression_IsbL-0100_RLatLon0.09_PT013H.grib2 2026-04-28 02:44 130K
20260428T00Z_MSC_RDPS_DewPointDepression_IsbL-0150_RLatLon0.09_PT013H.grib2 2026-04-28 02:44 153K
20260428T00Z_MSC_RDPS_DewPointDepression_IsbL-0175_RLatLon0.09_PT013H.grib2 2026-04-28 02:44 182K
20260428T00Z_MSC_RDPS_DewPointDepression_IsbL-0200_RLatLon0.09_PT013H.grib2 2026-04-28 02:44 219K
20260428T00Z_MSC_RDPS_DewPointDepression_IsbL-0225_RLatLon0.09_PT013H.grib2 2026-04-28 02:44 264K
20260428T00Z_MSC_RDPS_DewPointDepression_IsbL-0250_RLatLon0.09_PT013H.grib2 2026-04-28 02:44 302K
20260428T00Z_MSC_RDPS_DewPointDepression_IsbL-0275_RLatLon0.09_PT013H.grib2 2026-04-28 02:44 309K
20260428T00Z_MSC_RDPS_DewPointDepression_IsbL-0300_RLatLon0.09_PT013H.grib2 2026-04-28 02:44 327K
20260428T00Z_MSC_RDPS_DewPointDepression_IsbL-0350_RLatLon0.09_PT013H.grib2 2026-04-28 02:44 335K
20260428T00Z_MSC_RDPS_DewPointDepression_IsbL-0400_RLatLon0.09_PT013H.grib2 2026-04-28 02:44 350K
20260428T00Z_MSC_RDPS_DewPointDepression_IsbL-0450_RLatLon0.09_PT013H.grib2 2026-04-28 02:44 356K
20260428T00Z_MSC_RDPS_DewPointDepression_IsbL-0500_RLatLon0.09_PT013H.grib2 2026-04-28 02:44 359K
20260428T00Z_MSC_RDPS_DewPointDepression_IsbL-0550_RLatLon0.09_PT013H.grib2 2026-04-28 02:44 368K
20260428T00Z_MSC_RDPS_DewPointDepression_IsbL-0600_RLatLon0.09_PT013H.grib2 2026-04-28 02:44 378K
20260428T00Z_MSC_RDPS_DewPointDepression_IsbL-0650_RLatLon0.09_PT013H.grib2 2026-04-28 02:44 382K
20260428T00Z_MSC_RDPS_DewPointDepression_IsbL-0700_RLatLon0.09_PT013H.grib2 2026-04-28 02:44 390K
20260428T00Z_MSC_RDPS_DewPointDepression_IsbL-0750_RLatLon0.09_PT013H.grib2 2026-04-28 02:44 413K
20260428T00Z_MSC_RDPS_DewPointDepression_IsbL-0800_RLatLon0.09_PT013H.grib2 2026-04-28 02:44 446K
20260428T00Z_MSC_RDPS_DewPointDepression_IsbL-0850_RLatLon0.09_PT013H.grib2 2026-04-28 02:44 473K
20260428T00Z_MSC_RDPS_DewPointDepression_IsbL-0875_RLatLon0.09_PT013H.grib2 2026-04-28 02:44 476K
20260428T00Z_MSC_RDPS_DewPointDepression_IsbL-0900_RLatLon0.09_PT013H.grib2 2026-04-28 02:44 463K
20260428T00Z_MSC_RDPS_DewPointDepression_IsbL-0925_RLatLon0.09_PT013H.grib2 2026-04-28 02:44 453K
20260428T00Z_MSC_RDPS_DewPointDepression_IsbL-0950_RLatLon0.09_PT013H.grib2 2026-04-28 02:44 447K
20260428T00Z_MSC_RDPS_DewPointDepression_IsbL-0970_RLatLon0.09_PT013H.grib2 2026-04-28 02:44 442K
20260428T00Z_MSC_RDPS_DewPointDepression_IsbL-0985_RLatLon0.09_PT013H.grib2 2026-04-28 02:44 437K
20260428T00Z_MSC_RDPS_DewPointDepression_IsbL-1000_RLatLon0.09_PT013H.grib2 2026-04-28 02:44 435K
20260428T00Z_MSC_RDPS_DewPointDepression_IsbL-1015_RLatLon0.09_PT013H.grib2 2026-04-28 02:44 429K
20260428T00Z_MSC_RDPS_DewPoint_AGL-2m_RLatLon0.09_PT013H.grib2 2026-04-28 02:44 317K
20260428T00Z_MSC_RDPS_DownwardLongwaveRadiationFlux-Accum_Sfc_RLatLon0.09_PT013H.grib2 2026-04-28 02:44 480K
20260428T00Z_MSC_RDPS_DownwardShortwaveRadiationFlux-Accum_NTAtm_RLatLon0.09_PT013H.grib2 2026-04-28 02:44 119K
20260428T00Z_MSC_RDPS_DownwardShortwaveRadiationFlux-Accum_Sfc_RLatLon0.09_PT013H.grib2 2026-04-28 02:44 421K
20260428T00Z_MSC_RDPS_FreezingRain-Accum1h_Sfc_RLatLon0.09_PT013H.grib2 2026-04-28 02:44 39K
20260428T00Z_MSC_RDPS_FreezingRain-Accum_Sfc_RLatLon0.09_PT013H.grib2 2026-04-28 02:44 101K
20260428T00Z_MSC_RDPS_GeopotentialHeight_IsbL-0001_RLatLon0.09_PT013H.grib2 2026-04-28 02:44 244K
20260428T00Z_MSC_RDPS_GeopotentialHeight_IsbL-0005_RLatLon0.09_PT013H.grib2 2026-04-28 02:44 342K
20260428T00Z_MSC_RDPS_GeopotentialHeight_IsbL-0010_RLatLon0.09_PT013H.grib2 2026-04-28 02:44 343K
20260428T00Z_MSC_RDPS_GeopotentialHeight_IsbL-0020_RLatLon0.09_PT013H.grib2 2026-04-28 02:44 309K
20260428T00Z_MSC_RDPS_GeopotentialHeight_IsbL-0030_RLatLon0.09_PT013H.grib2 2026-04-28 02:44 311K
20260428T00Z_MSC_RDPS_GeopotentialHeight_IsbL-0050_RLatLon0.09_PT013H.grib2 2026-04-28 02:44 312K
20260428T00Z_MSC_RDPS_GeopotentialHeight_IsbL-0100_RLatLon0.09_PT013H.grib2 2026-04-28 02:44 290K
20260428T00Z_MSC_RDPS_GeopotentialHeight_IsbL-0150_RLatLon0.09_PT013H.grib2 2026-04-28 02:44 232K
20260428T00Z_MSC_RDPS_GeopotentialHeight_IsbL-0175_RLatLon0.09_PT013H.grib2 2026-04-28 02:44 266K
20260428T00Z_MSC_RDPS_GeopotentialHeight_IsbL-0200_RLatLon0.09_PT013H.grib2 2026-04-28 02:44 268K
20260428T00Z_MSC_RDPS_GeopotentialHeight_IsbL-0225_RLatLon0.09_PT013H.grib2 2026-04-28 02:44 269K
20260428T00Z_MSC_RDPS_GeopotentialHeight_IsbL-0250_RLatLon0.09_PT013H.grib2 2026-04-28 02:44 270K
20260428T00Z_MSC_RDPS_GeopotentialHeight_IsbL-0275_RLatLon0.09_PT013H.grib2 2026-04-28 02:44 269K
20260428T00Z_MSC_RDPS_GeopotentialHeight_IsbL-0300_RLatLon0.09_PT013H.grib2 2026-04-28 02:44 269K
20260428T00Z_MSC_RDPS_GeopotentialHeight_IsbL-0350_RLatLon0.09_PT013H.grib2 2026-04-28 02:44 235K
20260428T00Z_MSC_RDPS_GeopotentialHeight_IsbL-0400_RLatLon0.09_PT013H.grib2 2026-04-28 02:44 231K
20260428T00Z_MSC_RDPS_GeopotentialHeight_IsbL-0450_RLatLon0.09_PT013H.grib2 2026-04-28 02:44 300K
20260428T00Z_MSC_RDPS_GeopotentialHeight_IsbL-0500_RLatLon0.09_PT013H.grib2 2026-04-28 02:44 294K
20260428T00Z_MSC_RDPS_GeopotentialHeight_IsbL-0550_RLatLon0.09_PT013H.grib2 2026-04-28 02:44 290K
20260428T00Z_MSC_RDPS_GeopotentialHeight_IsbL-0600_RLatLon0.09_PT013H.grib2 2026-04-28 02:44 285K
20260428T00Z_MSC_RDPS_GeopotentialHeight_IsbL-0650_RLatLon0.09_PT013H.grib2 2026-04-28 02:44 284K
20260428T00Z_MSC_RDPS_GeopotentialHeight_IsbL-0700_RLatLon0.09_PT013H.grib2 2026-04-28 02:44 254K
20260428T00Z_MSC_RDPS_GeopotentialHeight_IsbL-0750_RLatLon0.09_PT013H.grib2 2026-04-28 02:44 255K
20260428T00Z_MSC_RDPS_GeopotentialHeight_IsbL-0800_RLatLon0.09_PT013H.grib2 2026-04-28 02:44 346K
20260428T00Z_MSC_RDPS_GeopotentialHeight_IsbL-0850_RLatLon0.09_PT013H.grib2 2026-04-28 02:44 357K
20260428T00Z_MSC_RDPS_GeopotentialHeight_IsbL-0875_RLatLon0.09_PT013H.grib2 2026-04-28 02:44 360K
20260428T00Z_MSC_RDPS_GeopotentialHeight_IsbL-0900_RLatLon0.09_PT013H.grib2 2026-04-28 02:44 366K
20260428T00Z_MSC_RDPS_GeopotentialHeight_IsbL-0925_RLatLon0.09_PT013H.grib2 2026-04-28 02:44 368K
20260428T00Z_MSC_RDPS_GeopotentialHeight_IsbL-0950_RLatLon0.09_PT013H.grib2 2026-04-28 02:44 372K
20260428T00Z_MSC_RDPS_GeopotentialHeight_IsbL-0970_RLatLon0.09_PT013H.grib2 2026-04-28 02:44 378K
20260428T00Z_MSC_RDPS_GeopotentialHeight_IsbL-0985_RLatLon0.09_PT013H.grib2 2026-04-28 02:44 387K
20260428T00Z_MSC_RDPS_GeopotentialHeight_IsbL-1000_RLatLon0.09_PT013H.grib2 2026-04-28 02:44 399K
20260428T00Z_MSC_RDPS_GeopotentialHeight_IsbL-1015_RLatLon0.09_PT013H.grib2 2026-04-28 02:44 414K
20260428T00Z_MSC_RDPS_Humidex_Sfc_RLatLon0.09_PT013H.grib2 2026-04-28 02:44 2.4M
20260428T00Z_MSC_RDPS_IcePellets-Accum1h_Sfc_RLatLon0.09_PT013H.grib2 2026-04-28 02:44 10K
20260428T00Z_MSC_RDPS_IcePellets-Accum_Sfc_RLatLon0.09_PT013H.grib2 2026-04-28 02:44 13K
20260428T00Z_MSC_RDPS_KIndex_Sfc_RLatLon0.09_PT013H.grib2 2026-04-28 02:44 2.4M
20260428T00Z_MSC_RDPS_LatentHeatNetFlux_Sfc_RLatLon0.09_PT013H.grib2 2026-04-28 02:44 345K
20260428T00Z_MSC_RDPS_LiftedIndex-MU-VT_IsbL-0500_RLatLon0.09_PT013H.grib2 2026-04-28 02:44 2.4M
20260428T00Z_MSC_RDPS_NetLongwaveRadiationFlux-Accum_Sfc_RLatLon0.09_PT013H.grib2 2026-04-28 02:44 626K
20260428T00Z_MSC_RDPS_NetShortwaveRadiationFlux-Accum_Sfc_RLatLon0.09_PT013H.grib2 2026-04-28 02:44 529K
20260428T00Z_MSC_RDPS_PlanetaryBoundaryLayerHeight_Sfc_RLatLon0.09_PT013H.grib2 2026-04-28 02:44 1.1M
20260428T00Z_MSC_RDPS_Precip-Accum1h_Sfc_RLatLon0.09_PT013H.grib2 2026-04-28 02:44 1.3M
20260428T00Z_MSC_RDPS_Precip-Accum_Sfc_RLatLon0.09_PT013H.grib2 2026-04-28 02:44 1.6M
20260428T00Z_MSC_RDPS_PrecipRate_Sfc_RLatLon0.09_PT013H.grib2 2026-04-28 02:44 173K
20260428T00Z_MSC_RDPS_PrecipType-Instant_Sfc_RLatLon0.09_PT013H.grib2 2026-04-28 02:44 578K
20260428T00Z_MSC_RDPS_Pressure-Trend3h_Sfc_RLatLon0.09_PT013H.grib2 2026-04-28 02:44 1.2M
20260428T00Z_MSC_RDPS_Pressure_MSL_RLatLon0.09_PT013H.grib2 2026-04-28 02:44 328K
20260428T00Z_MSC_RDPS_Pressure_PVU-1.5_RLatLon0.09_PT013H.grib2 2026-04-28 02:44 2.5M
20260428T00Z_MSC_RDPS_Pressure_PVU-1_RLatLon0.09_PT013H.grib2 2026-04-28 02:44 2.4M
20260428T00Z_MSC_RDPS_Pressure_PVU-2_RLatLon0.09_PT013H.grib2 2026-04-28 02:44 2.4M
20260428T00Z_MSC_RDPS_Pressure_Sfc_RLatLon0.09_PT013H.grib2 2026-04-28 02:44 503K
20260428T00Z_MSC_RDPS_RadiativeTemp_Sfc_RLatLon0.09_PT013H.grib2 2026-04-28 02:44 308K
20260428T00Z_MSC_RDPS_Rain-Accum1h_Sfc_RLatLon0.09_PT013H.grib2 2026-04-28 02:44 543K
20260428T00Z_MSC_RDPS_Rain-Accum_Sfc_RLatLon0.09_PT013H.grib2 2026-04-28 02:44 1.1M
20260428T00Z_MSC_RDPS_RelativeHumidity_AGL-2m_RLatLon0.09_PT013H.grib2 2026-04-28 02:44 1.0M
20260428T00Z_MSC_RDPS_RelativeHumidity_IsbL-0010_RLatLon0.09_PT013H.grib2 2026-04-28 02:44 629K
20260428T00Z_MSC_RDPS_RelativeHumidity_IsbL-0020_RLatLon0.09_PT013H.grib2 2026-04-28 02:44 655K
20260428T00Z_MSC_RDPS_RelativeHumidity_IsbL-0030_RLatLon0.09_PT013H.grib2 2026-04-28 02:44 609K
20260428T00Z_MSC_RDPS_RelativeHumidity_IsbL-0050_RLatLon0.09_PT013H.grib2 2026-04-28 02:44 325K
20260428T00Z_MSC_RDPS_RelativeHumidity_IsbL-0100_RLatLon0.09_PT013H.grib2 2026-04-28 02:44 279K
20260428T00Z_MSC_RDPS_RelativeHumidity_IsbL-0150_RLatLon0.09_PT013H.grib2 2026-04-28 02:44 418K
20260428T00Z_MSC_RDPS_RelativeHumidity_IsbL-0175_RLatLon0.09_PT013H.grib2 2026-04-28 02:44 489K
20260428T00Z_MSC_RDPS_RelativeHumidity_IsbL-0200_RLatLon0.09_PT013H.grib2 2026-04-28 02:44 558K
20260428T00Z_MSC_RDPS_RelativeHumidity_IsbL-0225_RLatLon0.09_PT013H.grib2 2026-04-28 02:44 619K
20260428T00Z_MSC_RDPS_RelativeHumidity_IsbL-0250_RLatLon0.09_PT013H.grib2 2026-04-28 02:44 687K
20260428T00Z_MSC_RDPS_RelativeHumidity_IsbL-0275_RLatLon0.09_PT013H.grib2 2026-04-28 02:44 717K
20260428T00Z_MSC_RDPS_RelativeHumidity_IsbL-0300_RLatLon0.09_PT013H.grib2 2026-04-28 02:44 765K
20260428T00Z_MSC_RDPS_RelativeHumidity_IsbL-0350_RLatLon0.09_PT013H.grib2 2026-04-28 02:44 788K
20260428T00Z_MSC_RDPS_RelativeHumidity_IsbL-0400_RLatLon0.09_PT013H.grib2 2026-04-28 02:44 804K
20260428T00Z_MSC_RDPS_RelativeHumidity_IsbL-0450_RLatLon0.09_PT013H.grib2 2026-04-28 02:44 810K
20260428T00Z_MSC_RDPS_RelativeHumidity_IsbL-0500_RLatLon0.09_PT013H.grib2 2026-04-28 02:44 826K
20260428T00Z_MSC_RDPS_RelativeHumidity_IsbL-0550_RLatLon0.09_PT013H.grib2 2026-04-28 02:44 840K
20260428T00Z_MSC_RDPS_RelativeHumidity_IsbL-0600_RLatLon0.09_PT013H.grib2 2026-04-28 02:44 854K
20260428T00Z_MSC_RDPS_RelativeHumidity_IsbL-0650_RLatLon0.09_PT013H.grib2 2026-04-28 02:44 862K
20260428T00Z_MSC_RDPS_RelativeHumidity_IsbL-0700_RLatLon0.09_PT013H.grib2 2026-04-28 02:44 883K
20260428T00Z_MSC_RDPS_RelativeHumidity_IsbL-0750_RLatLon0.09_PT013H.grib2 2026-04-28 02:44 927K
20260428T00Z_MSC_RDPS_RelativeHumidity_IsbL-0800_RLatLon0.09_PT013H.grib2 2026-04-28 02:44 1.0M
20260428T00Z_MSC_RDPS_RelativeHumidity_IsbL-0850_RLatLon0.09_PT013H.grib2 2026-04-28 02:44 1.0M
20260428T00Z_MSC_RDPS_RelativeHumidity_IsbL-0875_RLatLon0.09_PT013H.grib2 2026-04-28 02:44 1.1M
20260428T00Z_MSC_RDPS_RelativeHumidity_IsbL-0900_RLatLon0.09_PT013H.grib2 2026-04-28 02:44 1.1M
20260428T00Z_MSC_RDPS_RelativeHumidity_IsbL-0925_RLatLon0.09_PT013H.grib2 2026-04-28 02:44 1.1M
20260428T00Z_MSC_RDPS_RelativeHumidity_IsbL-0950_RLatLon0.09_PT013H.grib2 2026-04-28 02:44 1.1M
20260428T00Z_MSC_RDPS_RelativeHumidity_IsbL-0970_RLatLon0.09_PT013H.grib2 2026-04-28 02:44 1.1M
20260428T00Z_MSC_RDPS_RelativeHumidity_IsbL-0985_RLatLon0.09_PT013H.grib2 2026-04-28 02:44 1.1M
20260428T00Z_MSC_RDPS_RelativeHumidity_IsbL-1000_RLatLon0.09_PT013H.grib2 2026-04-28 02:44 1.0M
20260428T00Z_MSC_RDPS_RelativeHumidity_IsbL-1015_RLatLon0.09_PT013H.grib2 2026-04-28 02:44 1.0M
20260428T00Z_MSC_RDPS_Runoff-Accum_Sfc_RLatLon0.09_PT013H.grib2 2026-04-28 02:44 44K
20260428T00Z_MSC_RDPS_SWEATIndex_Sfc_RLatLon0.09_PT013H.grib2 2026-04-28 02:44 2.4M
20260428T00Z_MSC_RDPS_SeeingIndex_EAtm_RLatLon0.09_PT013H.grib2 2026-04-28 02:44 1.0M
20260428T00Z_MSC_RDPS_SensibleHeatNetFlux_Sfc_RLatLon0.09_PT013H.grib2 2026-04-28 02:44 327K
20260428T00Z_MSC_RDPS_ShowalterIndex_IsbL-0500_RLatLon0.09_PT013H.grib2 2026-04-28 02:44 2.6M
20260428T00Z_MSC_RDPS_SkyTransparencyIndex_EAtm_RLatLon0.09_PT013H.grib2 2026-04-28 02:44 724K
20260428T00Z_MSC_RDPS_Snow-Accum1h_Sfc_RLatLon0.09_PT013H.grib2 2026-04-28 02:44 359K
20260428T00Z_MSC_RDPS_Snow-Accum_Sfc_RLatLon0.09_PT013H.grib2 2026-04-28 02:44 658K
20260428T00Z_MSC_RDPS_SnowDensity_Sfc_RLatLon0.09_PT013H.grib2 2026-04-28 02:44 179K
20260428T00Z_MSC_RDPS_SnowDepth_Sfc_RLatLon0.09_PT013H.grib2 2026-04-28 02:44 705K
20260428T00Z_MSC_RDPS_SoilTemp_DBS-0to10cm_RLatLon0.09_PT013H.grib2 2026-04-28 02:44 211K
20260428T00Z_MSC_RDPS_SoilTemp_Sfc_RLatLon0.09_PT013H.grib2 2026-04-28 02:44 277K
20260428T00Z_MSC_RDPS_SoilVolumetricIceContent_Sfc_RLatLon0.09_PT013H.grib2 2026-04-28 02:44 170K
20260428T00Z_MSC_RDPS_SoilVolumetricWaterContent_DBS-0to10cm_RLatLon0.09_PT013H.grib2 2026-04-28 02:44 261K
20260428T00Z_MSC_RDPS_SoilVolumetricWaterContent_DBS-0to1cm_RLatLon0.09_PT013H.grib2 2026-04-28 02:44 334K
20260428T00Z_MSC_RDPS_SpecificHumidity_AGL-120m_RLatLon0.09_PT013H.grib2 2026-04-28 02:44 491K
20260428T00Z_MSC_RDPS_SpecificHumidity_AGL-2m_RLatLon0.09_PT013H.grib2 2026-04-28 02:44 661K
20260428T00Z_MSC_RDPS_SpecificHumidity_AGL-40m_RLatLon0.09_PT013H.grib2 2026-04-28 02:44 497K
20260428T00Z_MSC_RDPS_SpecificHumidity_AGL-80m_RLatLon0.09_PT013H.grib2 2026-04-28 02:44 494K
20260428T00Z_MSC_RDPS_SpecificHumidity_IsbL-0001_RLatLon0.09_PT013H.grib2 2026-04-28 02:44 339K
20260428T00Z_MSC_RDPS_SpecificHumidity_IsbL-0005_RLatLon0.09_PT013H.grib2 2026-04-28 02:44 359K
20260428T00Z_MSC_RDPS_SpecificHumidity_IsbL-0010_RLatLon0.09_PT013H.grib2 2026-04-28 02:44 397K
20260428T00Z_MSC_RDPS_SpecificHumidity_IsbL-0020_RLatLon0.09_PT013H.grib2 2026-04-28 02:44 389K
20260428T00Z_MSC_RDPS_SpecificHumidity_IsbL-0030_RLatLon0.09_PT013H.grib2 2026-04-28 02:44 369K
20260428T00Z_MSC_RDPS_SpecificHumidity_IsbL-0050_RLatLon0.09_PT013H.grib2 2026-04-28 02:44 468K
20260428T00Z_MSC_RDPS_SpecificHumidity_IsbL-0100_RLatLon0.09_PT013H.grib2 2026-04-28 02:44 424K
20260428T00Z_MSC_RDPS_SpecificHumidity_IsbL-0150_RLatLon0.09_PT013H.grib2 2026-04-28 02:44 379K
20260428T00Z_MSC_RDPS_SpecificHumidity_IsbL-0175_RLatLon0.09_PT013H.grib2 2026-04-28 02:44 464K
20260428T00Z_MSC_RDPS_SpecificHumidity_IsbL-0200_RLatLon0.09_PT013H.grib2 2026-04-28 02:44 562K
20260428T00Z_MSC_RDPS_SpecificHumidity_IsbL-0225_RLatLon0.09_PT013H.grib2 2026-04-28 02:44 452K
20260428T00Z_MSC_RDPS_SpecificHumidity_IsbL-0250_RLatLon0.09_PT013H.grib2 2026-04-28 02:44 553K
20260428T00Z_MSC_RDPS_SpecificHumidity_IsbL-0275_RLatLon0.09_PT013H.grib2 2026-04-28 02:44 469K
20260428T00Z_MSC_RDPS_SpecificHumidity_IsbL-0300_RLatLon0.09_PT013H.grib2 2026-04-28 02:44 571K
20260428T00Z_MSC_RDPS_SpecificHumidity_IsbL-0350_RLatLon0.09_PT013H.grib2 2026-04-28 02:44 542K
20260428T00Z_MSC_RDPS_SpecificHumidity_IsbL-0400_RLatLon0.09_PT013H.grib2 2026-04-28 02:44 525K
20260428T00Z_MSC_RDPS_SpecificHumidity_IsbL-0450_RLatLon0.09_PT013H.grib2 2026-04-28 02:44 578K
20260428T00Z_MSC_RDPS_SpecificHumidity_IsbL-0500_RLatLon0.09_PT013H.grib2 2026-04-28 02:44 514K
20260428T00Z_MSC_RDPS_SpecificHumidity_IsbL-0550_RLatLon0.09_PT013H.grib2 2026-04-28 02:44 568K
20260428T00Z_MSC_RDPS_SpecificHumidity_IsbL-0600_RLatLon0.09_PT013H.grib2 2026-04-28 02:44 633K
20260428T00Z_MSC_RDPS_SpecificHumidity_IsbL-0650_RLatLon0.09_PT013H.grib2 2026-04-28 02:44 545K
20260428T00Z_MSC_RDPS_SpecificHumidity_IsbL-0700_RLatLon0.09_PT013H.grib2 2026-04-28 02:44 587K
20260428T00Z_MSC_RDPS_SpecificHumidity_IsbL-0750_RLatLon0.09_PT013H.grib2 2026-04-28 02:44 641K
20260428T00Z_MSC_RDPS_SpecificHumidity_IsbL-0800_RLatLon0.09_PT013H.grib2 2026-04-28 02:44 724K
20260428T00Z_MSC_RDPS_SpecificHumidity_IsbL-0850_RLatLon0.09_PT013H.grib2 2026-04-28 02:44 799K
20260428T00Z_MSC_RDPS_SpecificHumidity_IsbL-0875_RLatLon0.09_PT013H.grib2 2026-04-28 02:44 825K
20260428T00Z_MSC_RDPS_SpecificHumidity_IsbL-0900_RLatLon0.09_PT013H.grib2 2026-04-28 02:44 834K
20260428T00Z_MSC_RDPS_SpecificHumidity_IsbL-0925_RLatLon0.09_PT013H.grib2 2026-04-28 02:44 835K
20260428T00Z_MSC_RDPS_SpecificHumidity_IsbL-0950_RLatLon0.09_PT013H.grib2 2026-04-28 02:44 836K
20260428T00Z_MSC_RDPS_SpecificHumidity_IsbL-0970_RLatLon0.09_PT013H.grib2 2026-04-28 02:44 831K
20260428T00Z_MSC_RDPS_SpecificHumidity_IsbL-0985_RLatLon0.09_PT013H.grib2 2026-04-28 02:44 683K
20260428T00Z_MSC_RDPS_SpecificHumidity_IsbL-1000_RLatLon0.09_PT013H.grib2 2026-04-28 02:44 680K
20260428T00Z_MSC_RDPS_SpecificHumidity_IsbL-1015_RLatLon0.09_PT013H.grib2 2026-04-28 02:44 673K
20260428T00Z_MSC_RDPS_SpecificHumidity_Sfc_RLatLon0.09_PT013H.grib2 2026-04-28 02:44 297K
20260428T00Z_MSC_RDPS_StormRelativeHelicity_EtaL-10000_RLatLon0.09_PT013H.grib2 2026-04-28 02:44 1.1M
20260428T00Z_MSC_RDPS_StormSeverityIndex_EtaL-10000_RLatLon0.09_PT013H.grib2 2026-04-28 02:44 1.2M
20260428T00Z_MSC_RDPS_Thickness_IsbL-0850to0700_RLatLon0.09_PT013H.grib2 2026-04-28 02:44 176K
20260428T00Z_MSC_RDPS_Thickness_IsbL-1000to0500_RLatLon0.09_PT013H.grib2 2026-04-28 02:44 199K
20260428T00Z_MSC_RDPS_Thickness_IsbL-1000to0850_RLatLon0.09_PT013H.grib2 2026-04-28 02:44 263K
20260428T00Z_MSC_RDPS_TotalCloudCover_Sfc_RLatLon0.09_PT013H.grib2 2026-04-28 02:44 672K
20260428T00Z_MSC_RDPS_TotalTotalsIndex_Sfc_RLatLon0.09_PT013H.grib2 2026-04-28 02:44 2.4M
20260428T00Z_MSC_RDPS_UVIndex-ClearSky_Sfc_RLatLon0.09_PT013H.grib2 2026-04-28 02:44 188K
20260428T00Z_MSC_RDPS_UVIndex_Sfc_RLatLon0.09_PT013H.grib2 2026-04-28 02:44 404K
20260428T00Z_MSC_RDPS_UpwardLongwaveRadiationFlux_NTAtm_RLatLon0.09_PT013H.grib2 2026-04-28 02:44 492K
20260428T00Z_MSC_RDPS_UpwardShortwaveRadiationFlux_NTAtm_RLatLon0.09_PT013H.grib2 2026-04-28 02:44 349K
20260428T00Z_MSC_RDPS_VerticalVelocity_IsbL-0250_RLatLon0.09_PT013H.grib2 2026-04-28 02:44 459K
20260428T00Z_MSC_RDPS_VerticalVelocity_IsbL-0500_RLatLon0.09_PT013H.grib2 2026-04-28 02:44 551K
20260428T00Z_MSC_RDPS_VerticalVelocity_IsbL-0700_RLatLon0.09_PT013H.grib2 2026-04-28 02:44 553K
20260428T00Z_MSC_RDPS_VerticalVelocity_IsbL-0850_RLatLon0.09_PT013H.grib2 2026-04-28 02:44 652K
20260428T00Z_MSC_RDPS_VerticalWindShear_EtaL-6500_RLatLon0.09_PT013H.grib2 2026-04-28 02:44 1.2M
20260428T00Z_MSC_RDPS_WindChill_Sfc_RLatLon0.09_PT013H.grib2 2026-04-28 02:44 1.2M
20260428T00Z_MSC_RDPS_WindDir_AGL-10m_RLatLon0.09_PT013H.grib2 2026-04-28 02:44 1.0M
20260428T00Z_MSC_RDPS_WindDir_AGL-120m_RLatLon0.09_PT013H.grib2 2026-04-28 02:44 618K
20260428T00Z_MSC_RDPS_WindDir_AGL-40m_RLatLon0.09_PT013H.grib2 2026-04-28 02:44 650K
20260428T00Z_MSC_RDPS_WindDir_AGL-80m_RLatLon0.09_PT013H.grib2 2026-04-28 02:44 630K
20260428T00Z_MSC_RDPS_WindDir_IsbL-0001_RLatLon0.09_PT013H.grib2 2026-04-28 02:44 317K
20260428T00Z_MSC_RDPS_WindDir_IsbL-0005_RLatLon0.09_PT013H.grib2 2026-04-28 02:44 364K
20260428T00Z_MSC_RDPS_WindDir_IsbL-0010_RLatLon0.09_PT013H.grib2 2026-04-28 02:44 361K
20260428T00Z_MSC_RDPS_WindDir_IsbL-0020_RLatLon0.09_PT013H.grib2 2026-04-28 02:44 399K
20260428T00Z_MSC_RDPS_WindDir_IsbL-0030_RLatLon0.09_PT013H.grib2 2026-04-28 02:44 413K
20260428T00Z_MSC_RDPS_WindDir_IsbL-0050_RLatLon0.09_PT013H.grib2 2026-04-28 02:44 431K
20260428T00Z_MSC_RDPS_WindDir_IsbL-0100_RLatLon0.09_PT013H.grib2 2026-04-28 02:44 417K
20260428T00Z_MSC_RDPS_WindDir_IsbL-0150_RLatLon0.09_PT013H.grib2 2026-04-28 02:44 416K
20260428T00Z_MSC_RDPS_WindDir_IsbL-0175_RLatLon0.09_PT013H.grib2 2026-04-28 02:44 435K
20260428T00Z_MSC_RDPS_WindDir_IsbL-0200_RLatLon0.09_PT013H.grib2 2026-04-28 02:44 443K
20260428T00Z_MSC_RDPS_WindDir_IsbL-0225_RLatLon0.09_PT013H.grib2 2026-04-28 02:44 445K
20260428T00Z_MSC_RDPS_WindDir_IsbL-0250_RLatLon0.09_PT013H.grib2 2026-04-28 02:44 450K
20260428T00Z_MSC_RDPS_WindDir_IsbL-0275_RLatLon0.09_PT013H.grib2 2026-04-28 02:44 471K
20260428T00Z_MSC_RDPS_WindDir_IsbL-0300_RLatLon0.09_PT013H.grib2 2026-04-28 02:44 470K
20260428T00Z_MSC_RDPS_WindDir_IsbL-0350_RLatLon0.09_PT013H.grib2 2026-04-28 02:44 490K
20260428T00Z_MSC_RDPS_WindDir_IsbL-0400_RLatLon0.09_PT013H.grib2 2026-04-28 02:44 518K
20260428T00Z_MSC_RDPS_WindDir_IsbL-0450_RLatLon0.09_PT013H.grib2 2026-04-28 02:44 535K
20260428T00Z_MSC_RDPS_WindDir_IsbL-0500_RLatLon0.09_PT013H.grib2 2026-04-28 02:44 548K
20260428T00Z_MSC_RDPS_WindDir_IsbL-0550_RLatLon0.09_PT013H.grib2 2026-04-28 02:44 559K
20260428T00Z_MSC_RDPS_WindDir_IsbL-0600_RLatLon0.09_PT013H.grib2 2026-04-28 02:44 586K
20260428T00Z_MSC_RDPS_WindDir_IsbL-0650_RLatLon0.09_PT013H.grib2 2026-04-28 02:44 627K
20260428T00Z_MSC_RDPS_WindDir_IsbL-0700_RLatLon0.09_PT013H.grib2 2026-04-28 02:44 661K
20260428T00Z_MSC_RDPS_WindDir_IsbL-0750_RLatLon0.09_PT013H.grib2 2026-04-28 02:44 708K
20260428T00Z_MSC_RDPS_WindDir_IsbL-0800_RLatLon0.09_PT013H.grib2 2026-04-28 02:44 778K
20260428T00Z_MSC_RDPS_WindDir_IsbL-0850_RLatLon0.09_PT013H.grib2 2026-04-28 02:44 860K
20260428T00Z_MSC_RDPS_WindDir_IsbL-0875_RLatLon0.09_PT013H.grib2 2026-04-28 02:44 889K
20260428T00Z_MSC_RDPS_WindDir_IsbL-0900_RLatLon0.09_PT013H.grib2 2026-04-28 02:44 908K
20260428T00Z_MSC_RDPS_WindDir_IsbL-0925_RLatLon0.09_PT013H.grib2 2026-04-28 02:44 917K
20260428T00Z_MSC_RDPS_WindDir_IsbL-0950_RLatLon0.09_PT013H.grib2 2026-04-28 02:44 920K
20260428T00Z_MSC_RDPS_WindDir_IsbL-0970_RLatLon0.09_PT013H.grib2 2026-04-28 02:44 930K
20260428T00Z_MSC_RDPS_WindDir_IsbL-0985_RLatLon0.09_PT013H.grib2 2026-04-28 02:44 940K
20260428T00Z_MSC_RDPS_WindDir_IsbL-1000_RLatLon0.09_PT013H.grib2 2026-04-28 02:44 955K
20260428T00Z_MSC_RDPS_WindDir_IsbL-1015_RLatLon0.09_PT013H.grib2 2026-04-28 02:44 1.0M
20260428T00Z_MSC_RDPS_WindGust-Max_AGL-10m_RLatLon0.09_PT013H.grib2 2026-04-28 02:44 957K
20260428T00Z_MSC_RDPS_WindGust-Min_AGL-10m_RLatLon0.09_PT013H.grib2 2026-04-28 02:44 1.0M
20260428T00Z_MSC_RDPS_WindGust_AGL-10m_RLatLon0.09_PT013H.grib2 2026-04-28 02:44 1.0M
20260428T00Z_MSC_RDPS_WindSpeed_AGL-10m_RLatLon0.09_PT013H.grib2 2026-04-28 02:44 854K
20260428T00Z_MSC_RDPS_WindSpeed_AGL-120m_RLatLon0.09_PT013H.grib2 2026-04-28 02:44 549K
20260428T00Z_MSC_RDPS_WindSpeed_AGL-40m_RLatLon0.09_PT013H.grib2 2026-04-28 02:44 552K
20260428T00Z_MSC_RDPS_WindSpeed_AGL-80m_RLatLon0.09_PT013H.grib2 2026-04-28 02:44 550K
20260428T00Z_MSC_RDPS_WindSpeed_IsbL-0001_RLatLon0.09_PT013H.grib2 2026-04-28 02:44 254K
20260428T00Z_MSC_RDPS_WindSpeed_IsbL-0005_RLatLon0.09_PT013H.grib2 2026-04-28 02:44 296K
20260428T00Z_MSC_RDPS_WindSpeed_IsbL-0010_RLatLon0.09_PT013H.grib2 2026-04-28 02:44 306K
20260428T00Z_MSC_RDPS_WindSpeed_IsbL-0020_RLatLon0.09_PT013H.grib2 2026-04-28 02:44 324K
20260428T00Z_MSC_RDPS_WindSpeed_IsbL-0030_RLatLon0.09_PT013H.grib2 2026-04-28 02:44 321K
20260428T00Z_MSC_RDPS_WindSpeed_IsbL-0050_RLatLon0.09_PT013H.grib2 2026-04-28 02:44 354K
20260428T00Z_MSC_RDPS_WindSpeed_IsbL-0100_RLatLon0.09_PT013H.grib2 2026-04-28 02:44 447K
20260428T00Z_MSC_RDPS_WindSpeed_IsbL-0150_RLatLon0.09_PT013H.grib2 2026-04-28 02:44 391K
20260428T00Z_MSC_RDPS_WindSpeed_IsbL-0175_RLatLon0.09_PT013H.grib2 2026-04-28 02:44 440K
20260428T00Z_MSC_RDPS_WindSpeed_IsbL-0200_RLatLon0.09_PT013H.grib2 2026-04-28 02:44 451K
20260428T00Z_MSC_RDPS_WindSpeed_IsbL-0225_RLatLon0.09_PT013H.grib2 2026-04-28 02:44 457K
20260428T00Z_MSC_RDPS_WindSpeed_IsbL-0250_RLatLon0.09_PT013H.grib2 2026-04-28 02:44 462K
20260428T00Z_MSC_RDPS_WindSpeed_IsbL-0275_RLatLon0.09_PT013H.grib2 2026-04-28 02:44 464K
20260428T00Z_MSC_RDPS_WindSpeed_IsbL-0300_RLatLon0.09_PT013H.grib2 2026-04-28 02:44 460K
20260428T00Z_MSC_RDPS_WindSpeed_IsbL-0350_RLatLon0.09_PT013H.grib2 2026-04-28 02:44 469K
20260428T00Z_MSC_RDPS_WindSpeed_IsbL-0400_RLatLon0.09_PT013H.grib2 2026-04-28 02:44 474K
20260428T00Z_MSC_RDPS_WindSpeed_IsbL-0450_RLatLon0.09_PT013H.grib2 2026-04-28 02:44 591K
20260428T00Z_MSC_RDPS_WindSpeed_IsbL-0500_RLatLon0.09_PT013H.grib2 2026-04-28 02:44 587K
20260428T00Z_MSC_RDPS_WindSpeed_IsbL-0550_RLatLon0.09_PT013H.grib2 2026-04-28 02:44 586K
20260428T00Z_MSC_RDPS_WindSpeed_IsbL-0600_RLatLon0.09_PT013H.grib2 2026-04-28 02:44 594K
20260428T00Z_MSC_RDPS_WindSpeed_IsbL-0650_RLatLon0.09_PT013H.grib2 2026-04-28 02:44 613K
20260428T00Z_MSC_RDPS_WindSpeed_IsbL-0700_RLatLon0.09_PT013H.grib2 2026-04-28 02:44 676K
20260428T00Z_MSC_RDPS_WindSpeed_IsbL-0750_RLatLon0.09_PT013H.grib2 2026-04-28 02:44 705K
20260428T00Z_MSC_RDPS_WindSpeed_IsbL-0800_RLatLon0.09_PT013H.grib2 2026-04-28 02:44 710K
20260428T00Z_MSC_RDPS_WindSpeed_IsbL-0850_RLatLon0.09_PT013H.grib2 2026-04-28 02:44 770K
20260428T00Z_MSC_RDPS_WindSpeed_IsbL-0875_RLatLon0.09_PT013H.grib2 2026-04-28 02:44 793K
20260428T00Z_MSC_RDPS_WindSpeed_IsbL-0900_RLatLon0.09_PT013H.grib2 2026-04-28 02:44 808K
20260428T00Z_MSC_RDPS_WindSpeed_IsbL-0925_RLatLon0.09_PT013H.grib2 2026-04-28 02:44 866K
20260428T00Z_MSC_RDPS_WindSpeed_IsbL-0950_RLatLon0.09_PT013H.grib2 2026-04-28 02:44 868K
20260428T00Z_MSC_RDPS_WindSpeed_IsbL-0970_RLatLon0.09_PT013H.grib2 2026-04-28 02:44 869K
20260428T00Z_MSC_RDPS_WindSpeed_IsbL-0985_RLatLon0.09_PT013H.grib2 2026-04-28 02:44 863K
20260428T00Z_MSC_RDPS_WindSpeed_IsbL-1000_RLatLon0.09_PT013H.grib2 2026-04-28 02:44 860K
20260428T00Z_MSC_RDPS_WindSpeed_IsbL-1015_RLatLon0.09_PT013H.grib2 2026-04-28 02:44 852K
20260428T00Z_MSC_RDPS_WindU_AGL-10m_RLatLon0.09_PT013H.grib2 2026-04-28 02:44 439K
20260428T00Z_MSC_RDPS_WindU_AGL-120m_RLatLon0.09_PT013H.grib2 2026-04-28 02:44 426K
20260428T00Z_MSC_RDPS_WindU_AGL-40m_RLatLon0.09_PT013H.grib2 2026-04-28 02:44 548K
20260428T00Z_MSC_RDPS_WindU_AGL-80m_RLatLon0.09_PT013H.grib2 2026-04-28 02:44 428K
20260428T00Z_MSC_RDPS_WindU_IsbL-0001_RLatLon0.09_PT013H.grib2 2026-04-28 02:44 294K
20260428T00Z_MSC_RDPS_WindU_IsbL-0005_RLatLon0.09_PT013H.grib2 2026-04-28 02:44 333K
20260428T00Z_MSC_RDPS_WindU_IsbL-0010_RLatLon0.09_PT013H.grib2 2026-04-28 02:44 298K
20260428T00Z_MSC_RDPS_WindU_IsbL-0020_RLatLon0.09_PT013H.grib2 2026-04-28 02:44 353K
20260428T00Z_MSC_RDPS_WindU_IsbL-0030_RLatLon0.09_PT013H.grib2 2026-04-28 02:44 352K
20260428T00Z_MSC_RDPS_WindU_IsbL-0050_RLatLon0.09_PT013H.grib2 2026-04-28 02:44 380K
20260428T00Z_MSC_RDPS_WindU_IsbL-0100_RLatLon0.09_PT013H.grib2 2026-04-28 02:44 342K
20260428T00Z_MSC_RDPS_WindU_IsbL-0150_RLatLon0.09_PT013H.grib2 2026-04-28 02:44 407K
20260428T00Z_MSC_RDPS_WindU_IsbL-0175_RLatLon0.09_PT013H.grib2 2026-04-28 02:44 336K
20260428T00Z_MSC_RDPS_WindU_IsbL-0200_RLatLon0.09_PT013H.grib2 2026-04-28 02:44 344K
20260428T00Z_MSC_RDPS_WindU_IsbL-0225_RLatLon0.09_PT013H.grib2 2026-04-28 02:44 349K
20260428T00Z_MSC_RDPS_WindU_IsbL-0250_RLatLon0.09_PT013H.grib2 2026-04-28 02:44 352K
20260428T00Z_MSC_RDPS_WindU_IsbL-0275_RLatLon0.09_PT013H.grib2 2026-04-28 02:44 469K
20260428T00Z_MSC_RDPS_WindU_IsbL-0300_RLatLon0.09_PT013H.grib2 2026-04-28 02:44 463K
20260428T00Z_MSC_RDPS_WindU_IsbL-0350_RLatLon0.09_PT013H.grib2 2026-04-28 02:44 472K
20260428T00Z_MSC_RDPS_WindU_IsbL-0400_RLatLon0.09_PT013H.grib2 2026-04-28 02:44 476K
20260428T00Z_MSC_RDPS_WindU_IsbL-0450_RLatLon0.09_PT013H.grib2 2026-04-28 02:44 474K
20260428T00Z_MSC_RDPS_WindU_IsbL-0500_RLatLon0.09_PT013H.grib2 2026-04-28 02:44 474K
20260428T00Z_MSC_RDPS_WindU_IsbL-0550_RLatLon0.09_PT013H.grib2 2026-04-28 02:44 474K
20260428T00Z_MSC_RDPS_WindU_IsbL-0600_RLatLon0.09_PT013H.grib2 2026-04-28 02:44 465K
20260428T00Z_MSC_RDPS_WindU_IsbL-0650_RLatLon0.09_PT013H.grib2 2026-04-28 02:44 482K
20260428T00Z_MSC_RDPS_WindU_IsbL-0700_RLatLon0.09_PT013H.grib2 2026-04-28 02:44 500K
20260428T00Z_MSC_RDPS_WindU_IsbL-0750_RLatLon0.09_PT013H.grib2 2026-04-28 02:44 526K
20260428T00Z_MSC_RDPS_WindU_IsbL-0800_RLatLon0.09_PT013H.grib2 2026-04-28 02:44 572K
20260428T00Z_MSC_RDPS_WindU_IsbL-0850_RLatLon0.09_PT013H.grib2 2026-04-28 02:44 635K
20260428T00Z_MSC_RDPS_WindU_IsbL-0875_RLatLon0.09_PT013H.grib2 2026-04-28 02:44 653K
20260428T00Z_MSC_RDPS_WindU_IsbL-0900_RLatLon0.09_PT013H.grib2 2026-04-28 02:44 663K
20260428T00Z_MSC_RDPS_WindU_IsbL-0925_RLatLon0.09_PT013H.grib2 2026-04-28 02:44 670K
20260428T00Z_MSC_RDPS_WindU_IsbL-0950_RLatLon0.09_PT013H.grib2 2026-04-28 02:44 662K
20260428T00Z_MSC_RDPS_WindU_IsbL-0970_RLatLon0.09_PT013H.grib2 2026-04-28 02:44 661K
20260428T00Z_MSC_RDPS_WindU_IsbL-0985_RLatLon0.09_PT013H.grib2 2026-04-28 02:44 660K
20260428T00Z_MSC_RDPS_WindU_IsbL-1000_RLatLon0.09_PT013H.grib2 2026-04-28 02:44 657K
20260428T00Z_MSC_RDPS_WindU_IsbL-1015_RLatLon0.09_PT013H.grib2 2026-04-28 02:44 791K
20260428T00Z_MSC_RDPS_WindV_AGL-10m_RLatLon0.09_PT013H.grib2 2026-04-28 02:44 438K
20260428T00Z_MSC_RDPS_WindV_AGL-120m_RLatLon0.09_PT013H.grib2 2026-04-28 02:44 542K
20260428T00Z_MSC_RDPS_WindV_AGL-40m_RLatLon0.09_PT013H.grib2 2026-04-28 02:44 546K
20260428T00Z_MSC_RDPS_WindV_AGL-80m_RLatLon0.09_PT013H.grib2 2026-04-28 02:44 543K
20260428T00Z_MSC_RDPS_WindV_IsbL-0001_RLatLon0.09_PT013H.grib2 2026-04-28 02:44 293K
20260428T00Z_MSC_RDPS_WindV_IsbL-0005_RLatLon0.09_PT013H.grib2 2026-04-28 02:44 330K
20260428T00Z_MSC_RDPS_WindV_IsbL-0010_RLatLon0.09_PT013H.grib2 2026-04-28 02:44 297K
20260428T00Z_MSC_RDPS_WindV_IsbL-0020_RLatLon0.09_PT013H.grib2 2026-04-28 02:44 317K
20260428T00Z_MSC_RDPS_WindV_IsbL-0030_RLatLon0.09_PT013H.grib2 2026-04-28 02:44 316K
20260428T00Z_MSC_RDPS_WindV_IsbL-0050_RLatLon0.09_PT013H.grib2 2026-04-28 02:44 347K
20260428T00Z_MSC_RDPS_WindV_IsbL-0100_RLatLon0.09_PT013H.grib2 2026-04-28 02:44 338K
20260428T00Z_MSC_RDPS_WindV_IsbL-0150_RLatLon0.09_PT013H.grib2 2026-04-28 02:44 405K
20260428T00Z_MSC_RDPS_WindV_IsbL-0175_RLatLon0.09_PT013H.grib2 2026-04-28 02:44 430K
20260428T00Z_MSC_RDPS_WindV_IsbL-0200_RLatLon0.09_PT013H.grib2 2026-04-28 02:44 343K
20260428T00Z_MSC_RDPS_WindV_IsbL-0225_RLatLon0.09_PT013H.grib2 2026-04-28 02:44 346K
20260428T00Z_MSC_RDPS_WindV_IsbL-0250_RLatLon0.09_PT013H.grib2 2026-04-28 02:44 349K
20260428T00Z_MSC_RDPS_WindV_IsbL-0275_RLatLon0.09_PT013H.grib2 2026-04-28 02:44 365K
20260428T00Z_MSC_RDPS_WindV_IsbL-0300_RLatLon0.09_PT013H.grib2 2026-04-28 02:44 362K
20260428T00Z_MSC_RDPS_WindV_IsbL-0350_RLatLon0.09_PT013H.grib2 2026-04-28 02:44 367K
20260428T00Z_MSC_RDPS_WindV_IsbL-0400_RLatLon0.09_PT013H.grib2 2026-04-28 02:44 475K
20260428T00Z_MSC_RDPS_WindV_IsbL-0450_RLatLon0.09_PT013H.grib2 2026-04-28 02:44 473K
20260428T00Z_MSC_RDPS_WindV_IsbL-0500_RLatLon0.09_PT013H.grib2 2026-04-28 02:44 471K
20260428T00Z_MSC_RDPS_WindV_IsbL-0550_RLatLon0.09_PT013H.grib2 2026-04-28 02:44 469K
20260428T00Z_MSC_RDPS_WindV_IsbL-0600_RLatLon0.09_PT013H.grib2 2026-04-28 02:44 478K
20260428T00Z_MSC_RDPS_WindV_IsbL-0650_RLatLon0.09_PT013H.grib2 2026-04-28 02:44 494K
20260428T00Z_MSC_RDPS_WindV_IsbL-0700_RLatLon0.09_PT013H.grib2 2026-04-28 02:44 497K
20260428T00Z_MSC_RDPS_WindV_IsbL-0750_RLatLon0.09_PT013H.grib2 2026-04-28 02:44 522K
20260428T00Z_MSC_RDPS_WindV_IsbL-0800_RLatLon0.09_PT013H.grib2 2026-04-28 02:44 566K
20260428T00Z_MSC_RDPS_WindV_IsbL-0850_RLatLon0.09_PT013H.grib2 2026-04-28 02:44 620K
20260428T00Z_MSC_RDPS_WindV_IsbL-0875_RLatLon0.09_PT013H.grib2 2026-04-28 02:44 641K
20260428T00Z_MSC_RDPS_WindV_IsbL-0900_RLatLon0.09_PT013H.grib2 2026-04-28 02:44 654K
20260428T00Z_MSC_RDPS_WindV_IsbL-0925_RLatLon0.09_PT013H.grib2 2026-04-28 02:44 662K
20260428T00Z_MSC_RDPS_WindV_IsbL-0950_RLatLon0.09_PT013H.grib2 2026-04-28 02:44 803K
20260428T00Z_MSC_RDPS_WindV_IsbL-0970_RLatLon0.09_PT013H.grib2 2026-04-28 02:44 802K
20260428T00Z_MSC_RDPS_WindV_IsbL-0985_RLatLon0.09_PT013H.grib2 2026-04-28 02:44 798K
20260428T00Z_MSC_RDPS_WindV_IsbL-1000_RLatLon0.09_PT013H.grib2 2026-04-28 02:44 795K
20260428T00Z_MSC_RDPS_WindV_IsbL-1015_RLatLon0.09_PT013H.grib2 2026-04-28 02:44 837K